Teterboro, NJ

10:09 AM EDT on May 23, 2017 (GMT -0400)
Teterboro

Weather History for KTEB - February, 2013

Change the Weather History Date:

Saturday, February 2, 2013

  Actual Average Record
Temperature  
Mean Temperature 24 °F -  
Max Temperature 28 °F 38 °F 54 °F (2014)
Min Temperature 19 °F 24 °F 6 °F (1993)
Degree Days  
Heating Degree Days 42    
Moisture  
Dew Point 11 °F    
Average Humidity 60    
Maximum Humidity 88    
Minimum Humidity 35    
Precipitation  
Precipitation 0.02 in - - ()
Sea Level Pressure  
Sea Level Pressure 30.17 in    
Wind  
Wind Speed 9 mph (WSW)    
Max Wind Speed 16 mph    
Max Gust Speed 21 mph    
Visibility 8 miles    
Events Snow    
Averages and records for this station are not official NWS values.
T = Trace of Precipitation, MM = Missing Value Source: NWS Daily Summary

Daily Weather History Graph

Daily Weather History Graph

Search for Another Location

Airport or City:

Trip Planner

Search our weather history database for the weather conditions in past years. The results will help you decide how hot, cold, wet, or windy it might be!

Date:

Astronomy

Feb. 02, 2013 Rise Set
Actual Time 7:05 AM EST 5:15 PM EST
Civil Twilight 6:36 AM EST 5:44 PM EST
Nautical Twilight 6:03 AM EST 6:16 PM EST
Astronomical Twilight 5:31 AM EST 6:49 PM EST
Moon No Moon Rise 10:10 AM EST (2/2)
Length of Visible Light 11h 07m
Length of Day
10h 09m
Waning Gibbous, 60% of the Moon is Illuminated
Feb 2
Waning Gibbous
Feb 3
Last Quarter
Feb 10
New
Feb 17
First Quarter
Feb 25
Full

Hourly Weather History & Observations

Time (EST) Temp. Windchill Dew Point Humidity Pressure Visibility Wind Dir Wind Speed Gust Speed Precip Events Conditions
12:51 AM 24.1 °F 13.7 °F 8.1 °F 51% 30.23 in 10.0 mi West 10.4 mph 18.4 mph N/A   Mostly Cloudy
1:51 AM 23.0 °F 12.4 °F 7.0 °F 50% 30.25 in 10.0 mi West 10.4 mph - N/A   Clear
2:51 AM 21.9 °F 11.7 °F 7.0 °F 53% 30.27 in 10.0 mi West 9.2 mph - N/A   Scattered Clouds
3:51 AM 21.0 °F 8.1 °F 7.0 °F 55% 30.27 in 10.0 mi West 13.8 mph 18.4 mph N/A   Clear
4:51 AM 19.9 °F 9.3 °F 6.1 °F 55% 30.27 in 10.0 mi West 9.2 mph - N/A   Clear
5:51 AM 19.0 °F 9.0 °F 7.0 °F 59% 30.27 in 10.0 mi West 8.1 mph - N/A   Clear
6:51 AM 19.0 °F 8.2 °F 7.0 °F 59% 30.29 in 10.0 mi West 9.2 mph - N/A   Clear
7:51 AM 19.9 °F 9.3 °F 7.0 °F 57% 30.30 in 10.0 mi West 9.2 mph - N/A   Clear
8:51 AM 21.9 °F 14.5 °F 7.0 °F 53% 30.30 in 10.0 mi WSW 5.8 mph - N/A   Clear
9:51 AM 21.9 °F 17.2 °F 6.1 °F 51% 30.28 in 10.0 mi SSW 3.5 mph - N/A   Clear
10:51 AM 24.1 °F - 7.0 °F 48% 30.25 in 10.0 mi Calm Calm - N/A   Clear
11:51 AM 26.1 °F 16.2 °F 7.0 °F 44% 30.22 in 10.0 mi South 10.4 mph - N/A   Clear
12:51 PM 28.0 °F 17.5 °F 5.0 °F 38% 30.18 in 10.0 mi SSW 12.7 mph - N/A   Partly Cloudy
1:51 PM 28.9 °F 18.2 °F 3.9 °F 35% 30.15 in 10.0 mi SSW 13.8 mph 19.6 mph N/A   Mostly Cloudy
2:51 PM 28.9 °F 17.3 °F 5.0 °F 36% 30.13 in 10.0 mi WSW 16.1 mph 20.7 mph N/A   Overcast
3:51 PM 28.9 °F 18.6 °F 6.1 °F 38% 30.11 in 10.0 mi WSW 12.7 mph - N/A   Overcast
4:51 PM 28.0 °F 17.0 °F 8.1 °F 43% 30.10 in 10.0 mi SSW 13.8 mph - N/A   Overcast
5:51 PM 27.0 °F 17.3 °F 10.0 °F 49% 30.10 in 10.0 mi WSW 10.4 mph - N/A   Overcast
6:51 PM 27.0 °F 20.5 °F 10.9 °F 51% 30.09 in 10.0 mi West 5.8 mph - N/A   Overcast
7:51 PM 24.8 °F 16.1 °F 15.8 °F 69% 30.10 in 10.0 mi West 8.1 mph - N/A Snow Light Snow
8:51 PM 24.1 °F 18.2 °F 19.9 °F 84% 30.10 in 3.0 mi WNW 4.6 mph - 0.00 in Snow Light Snow
9:51 PM 24.1 °F 18.2 °F 19.9 °F 84% 30.10 in 2.5 mi West 4.6 mph - 0.00 in Snow Light Snow
10:00 PM 24.8 °F 19.1 °F 19.4 °F 80% 30.10 in 2.5 mi West 4.6 mph - 0.00 in Snow Light Snow
10:27 PM 24.8 °F - 19.4 °F 80% 30.09 in 2.5 mi Calm Calm - 0.01 in Snow Light Snow
10:46 PM 24.8 °F - 21.2 °F 86% 30.08 in 2.5 mi Calm Calm - 0.01 in Snow Light Snow
10:51 PM 24.1 °F - 21.0 °F 88% 30.09 in 1.5 mi Calm Calm - 0.01 in Snow Light Snow
11:13 PM 24.8 °F - 21.2 °F 86% 30.08 in 3.0 mi Calm Calm - 0.01 in Snow Light Snow
11:51 PM 24.1 °F - 21.0 °F 88% 30.06 in 3.0 mi Calm Calm - 0.01 in Snow Light Snow